• In Hungary
  • List of Countries
  • For 7 days
  • Water Temperature
  • Satellite Maps
  • Weather Map
  • News
  • Weather Widgets
  • user-avatar
    Login

    Hourly Weather Mazyr

    Today, 15 December, Friday

    Time Temperature Precipitation Wind Pressure Humidity
    00:00 -1°C° 0 mm 4 mps 738 mmHg 90%
    01:00 -2°C° 0 mm 4 mps 738 mmHg 91%
    02:00 -1°C° 0 mm 3 mps 738 mmHg 91%
    03:00 -1°C° 0 mm 3 mps 738 mmHg 92%
    04:00 -2°C° 0 mm 3 mps 739 mmHg 92%
    05:00 -2°C° 0 mm 3 mps 739 mmHg 92%
    06:00 -2°C° 0 mm 3 mps 739 mmHg 92%
    07:00 -2°C° 0 mm 3 mps 739 mmHg 91%
    08:00 -2°C° 0 mm 3 mps 739 mmHg 91%
    09:00 -1°C° 0 mm 3 mps 740 mmHg 88%
    10:00 -1°C° 0 mm 3 mps 740 mmHg 85%
    11:00 0°C° 0 mm 3 mps 740 mmHg 82%
    12:00 +1°C° 0 mm 3 mps 740 mmHg 82%
    13:00 +1°C° 0 mm 3 mps 739 mmHg 82%
    14:00 0°C° 0 mm 4 mps 739 mmHg 82%
    15:00 0°C° 0 mm 4 mps 739 mmHg 84%
    16:00 0°C° 0 mm 5 mps 738 mmHg 87%
    17:00 -1°C° 0 mm 5 mps 738 mmHg 89%
    18:00 -1°C° 0.2 mm 6 mps 737 mmHg 89%
    19:00 -1°C° 0.2 mm 6 mps 737 mmHg 90%
    20:00 +1°C° 0.2 mm 6 mps 736 mmHg 91%
    21:00 +1°C° 0.1 mm 6 mps 736 mmHg 90%
    22:00 +1°C° 0.1 mm 5 mps 736 mmHg 90%
    23:00 +1°C° 0.1 mm 5 mps 736 mmHg 90%

    Tomorrow, 16 December, Saturday

    Time Temperature Precipitation Wind Pressure Humidity
    00:00 +1°C° 0 mm 4 mps 737 mmHg 90%
    01:00 +2°C° 0 mm 3 mps 737 mmHg 91%
    02:00 +2°C° 0 mm 3 mps 738 mmHg 91%
    03:00 +2°C° 0.1 mm 2 mps 737 mmHg 92%
    04:00 +2°C° 0.1 mm 2 mps 737 mmHg 93%
    05:00 +2°C° 0.1 mm 2 mps 737 mmHg 94%
    06:00 +2°C° 0.9 mm 2 mps 737 mmHg 95%
    07:00 +2°C° 0.9 mm 2 mps 736 mmHg 96%
    08:00 +2°C° 0.9 mm 2 mps 736 mmHg 97%
    09:00 +2°C° 2 mm 2 mps 735 mmHg 97%
    10:00 +2°C° 2 mm 2 mps 735 mmHg 97%
    11:00 +2°C° 2 mm 2 mps 734 mmHg 97%
    12:00 +2°C° 0.7 mm 2 mps 734 mmHg 97%
    13:00 +2°C° 0.7 mm 2 mps 734 mmHg 97%
    14:00 +2°C° 0.7 mm 2 mps 733 mmHg 97%
    15:00 +2°C° 0.1 mm 2 mps 734 mmHg 97%
    16:00 +2°C° 0.1 mm 2 mps 734 mmHg 96%
    17:00 +1°C° 0.1 mm 3 mps 735 mmHg 96%
    18:00 0°C° 0.1 mm 3 mps 735 mmHg 96%
    19:00 0°C° 0.1 mm 3 mps 736 mmHg 95%
    20:00 +1°C° 0.1 mm 2 mps 736 mmHg 95%
    21:00 +1°C° 0 mm 2 mps 737 mmHg 95%
    22:00 +1°C° 0 mm 2 mps 738 mmHg 95%
    23:00 -1°C° 0 mm 2 mps 739 mmHg 95%

    Day after tomorrow, 17 December, Sunday

    Time Temperature Precipitation Wind Pressure Humidity
    00:00 -1°C° 0 mm 2 mps 739 mmHg 95%
    01:00 -1°C° 0 mm 2 mps 740 mmHg 95%
    02:00 -2°C° 0 mm 2 mps 740 mmHg 95%
    03:00 -2°C° 0 mm 2 mps 741 mmHg 95%
    04:00 -2°C° 0 mm 2 mps 741 mmHg 96%
    05:00 -2°C° 0 mm 2 mps 741 mmHg 96%
    06:00 -2°C° 0 mm 2 mps 742 mmHg 96%
    07:00 -2°C° 0 mm 2 mps 743 mmHg 95%
    08:00 -2°C° 0 mm 3 mps 743 mmHg 95%
    09:00 -2°C° 0 mm 3 mps 744 mmHg 93%
    10:00 -2°C° 0 mm 3 mps 744 mmHg 91%
    11:00 -1°C° 0 mm 3 mps 744 mmHg 90%
    12:00 -1°C° 0 mm 3 mps 744 mmHg 89%
    13:00 -2°C° 0 mm 4 mps 744 mmHg 87%
    14:00 -2°C° 0 mm 4 mps 744 mmHg 86%
    15:00 -2°C° 0 mm 4 mps 744 mmHg 86%
    16:00 -1°C° 0 mm 3 mps 745 mmHg 86%
    17:00 -1°C° 0 mm 3 mps 745 mmHg 86%
    18:00 -2°C° 0 mm 3 mps 745 mmHg 86%
    19:00 -2°C° 0 mm 3 mps 746 mmHg 85%
    20:00 -2°C° 0 mm 3 mps 746 mmHg 85%
    21:00 -2°C° 0 mm 3 mps 746 mmHg 85%
    22:00 -2°C° 0 mm 3 mps 746 mmHg 84%
    23:00 -2°C° 0 mm 3 mps 746 mmHg 84%

    18 December, Monday

    Time Temperature Precipitation Wind Pressure Humidity
    00:00 -2°C° 0 mm 3 mps 747 mmHg 85%
    01:00 -2°C° 0 mm 3 mps 747 mmHg 85%
    02:00 -4°C° 0 mm 3 mps 747 mmHg 86%
    03:00 -4°C° 0 mm 3 mps 747 mmHg 88%
    04:00 -5°C° 0 mm 3 mps 747 mmHg 89%
    05:00 -5°C° 0 mm 3 mps 747 mmHg 91%
    06:00 -5°C° 0 mm 3 mps 747 mmHg 90%
    07:00 -5°C° 0 mm 3 mps 748 mmHg 89%
    08:00 -5°C° 0 mm 3 mps 748 mmHg 87%
    09:00 -5°C° 0 mm 3 mps 748 mmHg 84%
    10:00 -4°C° 0 mm 3 mps 748 mmHg 81%
    11:00 -4°C° 0 mm 3 mps 748 mmHg 78%
    12:00 -4°C° 0 mm 3 mps 748 mmHg 77%
    13:00 -4°C° 0 mm 3 mps 748 mmHg 75%
    14:00 -4°C° 0 mm 3 mps 748 mmHg 73%
    15:00 -3°C° 0 mm 2 mps 748 mmHg 74%
    16:00 -3°C° 0 mm 2 mps 748 mmHg 76%
    17:00 -1°C° 0 mm 1 mps 749 mmHg 77%
    18:00 -1°C° 0 mm 1 mps 749 mmHg 78%
    19:00 -1°C° 0 mm 1 mps 749 mmHg 79%
    20:00 -1°C° 0 mm 1 mps 749 mmHg 80%
    21:00 -1°C° 0 mm 1 mps 750 mmHg 81%
    22:00 -1°C° 0 mm 1 mps 750 mmHg 83%
    23:00 -1°C° 0 mm 1 mps 750 mmHg 84%

    19 December, Tuesday

    Time Temperature Precipitation Wind Pressure Humidity
    00:00 -1°C° 0 mm 1 mps 750 mmHg 86%
    01:00 -1°C° 0 mm 1 mps 750 mmHg 87%
    02:00 -1°C° 0 mm 1 mps 750 mmHg 88%
    03:00 -1°C° 0 mm 1 mps 751 mmHg 89%
    04:00 -1°C° 0 mm 1 mps 751 mmHg 90%
    05:00 -1°C° 0 mm 1 mps 751 mmHg 91%
    06:00 -1°C° 0 mm 1 mps 751 mmHg 92%
    07:00 -1°C° 0 mm 1 mps 752 mmHg 93%
    08:00 -4°C° 0 mm 2 mps 752 mmHg 94%
    09:00 -3°C° 0 mm 2 mps 753 mmHg 91%
    10:00 -3°C° 0 mm 2 mps 753 mmHg 89%
    11:00 -3°C° 0 mm 2 mps 753 mmHg 87%
    12:00 -3°C° 0 mm 2 mps 753 mmHg 85%
    13:00 -3°C° 0 mm 2 mps 754 mmHg 84%
    14:00 -3°C° 0 mm 2 mps 754 mmHg 82%
    15:00 -3°C° 0 mm 2 mps 754 mmHg 85%
    16:00 -4°C° 0 mm 2 mps 754 mmHg 87%
    17:00 -4°C° 0 mm 2 mps 755 mmHg 89%
    18:00 -4°C° 0 mm 2 mps 755 mmHg 90%
    19:00 -3°C° 0 mm 1 mps 755 mmHg 91%
    20:00 -3°C° 0 mm 1 mps 756 mmHg 92%
    21:00 -3°C° 0 mm 1 mps 756 mmHg 92%
    22:00 -3°C° 0 mm 1 mps 756 mmHg 93%
    23:00 -3°C° 0 mm 1 mps 756 mmHg 93%

    20 December, Wednesday

    Time Temperature Precipitation Wind Pressure Humidity
    00:00 -3°C° 0 mm 1 mps 756 mmHg 94%
    01:00 -4°C° 0 mm 1 mps 757 mmHg 94%
    02:00 -4°C° 0 mm 1 mps 757 mmHg 95%
    03:00 -4°C° 0 mm 1 mps 757 mmHg 95%
    04:00 -4°C° 0 mm 1 mps 757 mmHg 95%
    05:00 -4°C° 0 mm 1 mps 757 mmHg 95%
    06:00 -4°C° 0 mm 1 mps 757 mmHg 95%
    07:00 -4°C° 0 mm 1 mps 757 mmHg 95%
    08:00 -4°C° 0 mm 1 mps 758 mmHg 95%
    09:00 -4°C° 0 mm 1 mps 758 mmHg 92%
    10:00 -3°C° 0 mm 1 mps 758 mmHg 89%
    11:00 -3°C° 0 mm 1 mps 758 mmHg 86%
    12:00 -2°C° 0 mm 1 mps 758 mmHg 85%
    13:00 -2°C° 0 mm 1 mps 758 mmHg 84%
    14:00 -2°C° 0 mm 1 mps 758 mmHg 84%
    15:00 -2°C° 0 mm 1 mps 758 mmHg 87%
    16:00 -3°C° 0 mm 1 mps 758 mmHg 89%
    17:00 -3°C° 0 mm 1 mps 758 mmHg 92%
    18:00 -3°C° 0 mm 1 mps 758 mmHg 92%
    19:00 -2°C° 0 mm 1 mps 758 mmHg 92%
    20:00 -2°C° 0 mm 1 mps 758 mmHg 93%
    21:00 -4°C° 0 mm 2 mps 758 mmHg 93%
    22:00 -4°C° 0 mm 2 mps 758 mmHg 94%
    23:00 -4°C° 0 mm 2 mps 757 mmHg 95%
    Show more